Location: Mahoning Valley Cortese Observatory
(41.2500°N, 80.9800°W)
Time: 16:47:46
(UTC-05:00)

Hubble Space Telescope - Visible Passes

Search period start: 24 February 2018 00:00
Search period end: 06 March 2018 00:00
Orbit: 537 x 541 km, 28.5° (Epoch: 24 February)

Date Brightness Start Highest point End Pass type
(mag) Time Alt. Az. Time Alt. Az. Time Alt. Az.
24 Feb 3.2 05:03:15 13° S 05:03:15 13° S 05:04:51 10° SSE visible
25 Feb 3.3 04:53:32 12° SSE 04:53:32 12° SSE 04:54:31 10° SSE visible
25 Feb 3.3 06:31:58 10° SSW 06:32:47 10° SSW 06:33:36 10° S visible
26 Feb 3.5 04:43:51 11° SSE 04:43:51 11° SSE 04:44:05 10° SSE visible
